Time,TemperatureF,DewpointF,PressureIn,WindDirection,WindDirectionDegrees,WindSpeedMPH,WindSpeedGustMPH,Humidity,HourlyPrecipIn,Conditions,Clouds,dailyrainin,SoftwareType,DateUTC
2013-02-03 00:01:00,31.0,31.0,30.31,SSW,196,2.0,3.0,108,-99.99,,,-99.99,,2013-02-03 08:01:00,
2013-02-03 00:11:00,31.0,31.0,30.31,SE,146,0.0,1.0,108,-99.99,,,-99.99,,2013-02-03 08:11:00,
2013-02-03 00:22:00,32.0,32.0,30.32,ESE,109,2.0,3.0,108,-99.99,,,-99.99,,2013-02-03 08:22:00,
2013-02-03 00:32:00,32.0,32.0,30.32,SE,126,3.0,3.0,108,-99.99,,,-99.99,,2013-02-03 08:32:00,
2013-02-03 00:41:00,32.0,32.0,30.32,SE,126,3.0,3.0,108,-99.99,,,-99.99,,2013-02-03 08:41:00,
2013-02-03 00:52:00,31.0,31.0,30.31,West,271,1.0,1.0,108,-99.99,,,-99.99,,2013-02-03 08:52:00,
2013-02-03 01:02:00,31.0,31.0,30.31,SE,135,1.0,1.0,108,-99.99,,,-99.99,,2013-02-03 09:02:00,
2013-02-03 01:11:00,31.0,31.0,30.31,SSW,207,1.0,1.0,109,-99.99,,,-99.99,,2013-02-03 09:11:00,
2013-02-03 01:21:00,31.0,31.0,30.31,South,186,2.0,2.0,109,-99.99,,,-99.99,,2013-02-03 09:21:00,
2013-02-03 01:31:00,31.0,31.0,30.30,SSE,154,1.0,1.0,109,-99.99,,,-99.99,,2013-02-03 09:31:00,
2013-02-03 01:41:00,30.0,30.0,30.29,SW,220,1.0,1.0,109,-99.99,,,-99.99,,2013-02-03 09:41:00,
2013-02-03 01:51:00,30.0,30.0,30.29,SW,217,1.0,1.0,109,-99.99,,,-99.99,,2013-02-03 09:51:00,
2013-02-03 02:01:00,30.0,30.0,30.29,SE,124,0.0,1.0,109,-99.99,,,-99.99,,2013-02-03 10:01:00,
2013-02-03 02:11:00,30.0,30.0,30.29,ESE,103,1.0,1.0,109,-99.99,,,-99.99,,2013-02-03 10:11:00,
2013-02-03 02:21:00,30.0,30.0,30.29,ENE,59,1.0,1.0,109,-99.99,,,-99.99,,2013-02-03 10:21:00,
2013-02-03 02:31:00,29.0,29.0,30.29,West,260,2.0,3.0,109,-99.99,,,-99.99,,2013-02-03 10:31:00,
2013-02-03 02:41:00,29.0,29.0,30.29,West,263,1.0,2.0,109,-99.99,,,-99.99,,2013-02-03 10:41:00,
2013-02-03 02:52:00,29.0,29.0,30.29,West,259,0.0,1.0,109,-99.99,,,-99.99,,2013-02-03 10:52:00,
2013-02-03 03:02:00,29.0,29.0,30.30,WSW,256,1.0,1.0,109,-99.99,,,-99.99,,2013-02-03 11:02:00,
2013-02-03 03:11:00,29.0,29.0,30.30,SSE,163,1.0,2.0,109,-99.99,,,-99.99,,2013-02-03 11:11:00,
2013-02-03 03:22:00,29.0,29.0,30.30,SSW,211,1.0,2.0,109,-99.99,,,-99.99,,2013-02-03 11:22:00,
2013-02-03 03:31:00,29.0,29.0,30.30,SSW,211,1.0,2.0,109,-99.99,,,-99.99,,2013-02-03 11:31:00,
2013-02-03 03:41:00,29.0,29.0,30.29,SSW,199,2.0,3.0,109,-99.99,,,-99.99,,2013-02-03 11:41:00,
2013-02-03 03:52:00,29.0,29.0,30.29,SW,220,1.0,2.0,109,-99.99,,,-99.99,,2013-02-03 11:52:00,
2013-02-03 04:02:00,29.0,29.0,30.28,SSW,204,1.0,1.0,109,-99.99,,,-99.99,,2013-02-03 12:02:00,
2013-02-03 04:11:00,29.0,29.0,30.28,SSE,166,2.0,4.0,109,-99.99,,,-99.99,,2013-02-03 12:11:00,
2013-02-03 04:22:00,29.0,29.0,30.28,WSW,239,1.0,1.0,110,-99.99,,,-99.99,,2013-02-03 12:22:00,
2013-02-03 04:32:00,29.0,29.0,30.28,SSE,157,2.0,3.0,110,-99.99,,,-99.99,,2013-02-03 12:32:00,
2013-02-03 04:42:00,29.0,29.0,30.27,ENE,76,1.0,1.0,109,-99.99,,,-99.99,,2013-02-03 12:42:00,
2013-02-03 04:52:00,30.0,30.0,30.27,ENE,62,0.0,1.0,109,-99.99,,,-99.99,,2013-02-03 12:52:00,
2013-02-03 05:03:00,30.0,30.0,30.27,SW,224,1.0,2.0,109,-99.99,,,-99.99,,2013-02-03 13:03:00,
2013-02-03 05:11:00,30.0,30.0,30.27,NNW,328,1.0,1.0,109,-99.99,,,-99.99,,2013-02-03 13:11:00,
2013-02-03 05:21:00,30.0,30.0,30.27,ESE,115,1.0,2.0,109,-99.99,,,-99.99,,2013-02-03 13:21:00,
2013-02-03 05:32:00,30.0,30.0,30.26,SE,139,1.0,1.0,109,-99.99,,,-99.99,,2013-02-03 13:32:00,
2013-02-03 05:42:00,31.0,31.0,30.26,SSE,155,1.0,2.0,109,-99.99,,,-99.99,,2013-02-03 13:42:00,
2013-02-03 05:52:00,31.0,31.0,30.26,SSE,164,1.0,1.0,109,-99.99,,,-99.99,,2013-02-03 13:52:00,
2013-02-03 06:02:00,31.0,31.0,30.27,WNW,299,1.0,1.0,109,-99.99,,,-99.99,,2013-02-03 14:02:00,
2013-02-03 06:11:00,31.0,31.0,30.27,NW,308,0.0,1.0,109,-99.99,,,-99.99,,2013-02-03 14:11:00,
2013-02-03 06:21:00,31.0,31.0,30.27,ESE,116,3.0,4.0,109,-99.99,,,-99.99,,2013-02-03 14:21:00,
2013-02-03 06:32:00,30.0,30.0,30.27,West,276,1.0,2.0,109,-99.99,,,-99.99,,2013-02-03 14:32:00,
2013-02-03 06:42:00,30.0,30.0,30.27,WSW,247,1.0,1.0,109,-99.99,,,-99.99,,2013-02-03 14:42:00,
2013-02-03 06:52:00,31.0,31.0,30.28,SW,221,2.0,3.0,109,-99.99,,,-99.99,,2013-02-03 14:52:00,
2013-02-03 07:03:00,31.0,31.0,30.28,SW,215,2.0,4.0,109,-99.99,,,-99.99,,2013-02-03 15:03:00,
2013-02-03 07:11:00,31.0,31.0,30.27,SW,228,2.0,3.0,109,-99.99,,,-99.99,,2013-02-03 15:11:00,
2013-02-03 07:21:00,32.0,32.0,30.27,SW,221,1.0,3.0,109,-99.99,,,-99.99,,2013-02-03 15:21:00,
2013-02-03 07:32:00,33.0,33.0,30.28,SSW,212,3.0,6.0,109,-99.99,,,-99.99,,2013-02-03 15:32:00,
2013-02-03 07:41:00,33.0,33.0,30.28,SSW,201,4.0,8.0,109,-99.99,,,-99.99,,2013-02-03 15:41:00,
2013-02-03 07:51:00,33.0,33.0,30.29,ENE,61,3.0,6.0,109,-99.99,,,-99.99,,2013-02-03 15:51:00,
2013-02-03 08:02:00,33.0,33.0,30.28,SE,138,5.0,6.0,109,-99.99,,,-99.99,,2013-02-03 16:02:00,
2013-02-03 08:11:00,33.0,33.0,30.28,South,179,2.0,8.0,108,-99.99,,,-99.99,,2013-02-03 16:11:00,
2013-02-03 08:21:00,33.0,33.0,30.28,SE,132,6.0,9.0,108,-99.99,,,-99.99,,2013-02-03 16:21:00,
2013-02-03 08:32:00,33.0,33.0,30.28,NNE,12,0.0,4.0,107,-99.99,,,-99.99,,2013-02-03 16:32:00,
2013-02-03 08:41:00,34.0,34.0,30.28,South,171,2.0,5.0,107,-99.99,,,-99.99,,2013-02-03 16:41:00,
2013-02-03 08:52:00,34.0,34.0,30.28,SSE,150,1.0,3.0,107,-99.99,,,-99.99,,2013-02-03 16:52:00,
2013-02-03 09:02:00,34.0,34.0,30.28,SE,141,3.0,8.0,107,-99.99,,,-99.99,,2013-02-03 17:02:00,
2013-02-03 09:11:00,35.0,35.0,30.28,SE,133,3.0,5.0,100,-99.99,,,-99.99,,2013-02-03 17:11:00,
2013-02-03 09:21:00,35.0,35.0,30.28,SE,126,4.0,5.0,100,-99.99,,,-99.99,,2013-02-03 17:21:00,
2013-02-03 09:31:00,35.0,35.0,30.29,SSE,168,4.0,5.0,100,-99.99,,,-99.99,,2013-02-03 17:31:00,
2013-02-03 09:42:00,36.0,36.0,30.28,South,183,3.0,6.0,100,-99.99,,,-99.99,,2013-02-03 17:42:00,
2013-02-03 09:52:00,36.0,36.0,30.28,SE,141,3.0,4.0,100,-99.99,,,-99.99,,2013-02-03 17:52:00,
2013-02-03 10:02:00,36.0,36.0,30.28,South,176,0.0,1.0,100,-99.99,,,-99.99,,2013-02-03 18:02:00,
2013-02-03 10:11:00,37.0,37.0,30.28,SW,226,2.0,7.0,100,-99.99,,,-99.99,,2013-02-03 18:11:00,
2013-02-03 10:23:00,38.0,38.0,30.28,SSW,192,2.0,9.0,100,-99.99,,,-99.99,,2013-02-03 18:23:00,
2013-02-03 10:32:00,39.0,38.0,30.28,East,93,3.0,6.0,96,-99.99,,,-99.99,,2013-02-03 18:32:00,
2013-02-03 10:41:00,40.0,39.0,30.28,SE,140,2.0,5.0,95,-99.99,,,-99.99,,2013-02-03 18:41:00,
2013-02-03 10:51:00,42.0,39.0,30.28,ESE,121,2.0,4.0,90,-99.99,,,-99.99,,2013-02-03 18:51:00,
2013-02-03 11:02:00,44.0,41.0,30.28,ESE,114,3.0,6.0,88,-99.99,,,-99.99,,2013-02-03 19:02:00,
2013-02-03 11:11:00,46.0,40.0,30.28,WNW,294,5.0,12.0,80,-99.99,,,-99.99,,2013-02-03 19:11:00,
2013-02-03 11:21:00,47.0,40.0,30.28,WNW,283,10.0,22.0,76,-99.99,,,-99.99,,2013-02-03 19:21:00,
2013-02-03 11:31:00,47.0,40.0,30.28,WNW,284,12.0,23.0,75,-99.99,,,-99.99,,2013-02-03 19:31:00,
2013-02-03 11:41:00,47.0,40.0,30.28,WNW,294,13.0,21.0,76,-99.99,,,-99.99,,2013-02-03 19:41:00,
2013-02-03 11:51:00,47.0,40.0,30.28,WNW,286,13.0,24.0,76,-99.99,,,-99.99,,2013-02-03 19:51:00,
2013-02-03 12:01:00,47.0,40.0,30.28,WNW,285,12.0,22.0,75,-99.99,,,-99.99,,2013-02-03 20:01:00,
2013-02-03 12:11:00,47.0,40.0,30.27,WNW,290,12.0,22.0,75,-99.99,,,-99.99,,2013-02-03 20:11:00,
2013-02-03 12:21:00,47.0,40.0,30.27,WNW,287,11.0,21.0,76,-99.99,,,-99.99,,2013-02-03 20:21:00,
2013-02-03 12:32:00,48.0,40.0,30.26,WNW,283,14.0,24.0,73,-99.99,,,-99.99,,2013-02-03 20:32:00,
2013-02-03 12:42:00,48.0,40.0,30.26,WNW,283,14.0,25.0,73,-99.99,,,-99.99,,2013-02-03 20:42:00,
2013-02-03 12:52:00,48.0,40.0,30.26,WNW,283,12.0,22.0,73,-99.99,,,-99.99,,2013-02-03 20:52:00,
2013-02-03 13:03:00,48.0,40.0,30.25,WNW,285,12.0,23.0,74,-99.99,,,-99.99,,2013-02-03 21:03:00,
2013-02-03 13:11:00,48.0,40.0,30.24,WNW,288,14.0,24.0,74,-99.99,,,-99.99,,2013-02-03 21:11:00,
2013-02-03 13:21:00,48.0,40.0,30.24,WNW,288,11.0,22.0,74,-99.99,,,-99.99,,2013-02-03 21:21:00,
2013-02-03 13:32:00,48.0,40.0,30.24,WNW,289,15.0,23.0,74,-99.99,,,-99.99,,2013-02-03 21:32:00,
2013-02-03 13:42:00,48.0,40.0,30.24,WNW,293,12.0,21.0,72,-99.99,,,-99.99,,2013-02-03 21:42:00,
2013-02-03 13:51:00,48.0,39.0,30.23,WNW,285,10.0,20.0,72,-99.99,,,-99.99,,2013-02-03 21:51:00,
2013-02-03 14:01:00,48.0,40.0,30.23,WNW,283,11.0,20.0,73,-99.99,,,-99.99,,2013-02-03 22:01:00,
2013-02-03 14:11:00,47.0,39.0,30.22,WNW,290,14.0,22.0,72,-99.99,,,-99.99,,2013-02-03 22:11:00,
2013-02-03 14:21:00,47.0,39.0,30.21,WNW,286,13.0,22.0,73,-99.99,,,-99.99,,2013-02-03 22:21:00,
2013-02-03 14:32:00,47.0,39.0,30.21,WNW,286,13.0,22.0,73,-99.99,,,-99.99,,2013-02-03 22:32:00,
2013-02-03 14:41:00,47.0,39.0,30.21,WNW,284,13.0,23.0,74,-99.99,,,-99.99,,2013-02-03 22:41:00,
2013-02-03 14:51:00,47.0,39.0,30.21,WNW,285,11.0,20.0,74,-99.99,,,-99.99,,2013-02-03 22:51:00,
2013-02-03 15:01:00,47.0,39.0,30.21,WNW,284,11.0,20.0,74,-99.99,,,-99.99,,2013-02-03 23:01:00,
2013-02-03 15:11:00,47.0,40.0,30.21,WNW,285,14.0,26.0,75,-99.99,,,-99.99,,2013-02-03 23:11:00,
2013-02-03 15:21:00,48.0,40.0,30.21,West,278,14.0,26.0,73,-99.99,,,-99.99,,2013-02-03 23:21:00,
2013-02-03 15:32:00,48.0,39.0,30.21,West,278,10.0,16.0,71,-99.99,,,-99.99,,2013-02-03 23:32:00,
2013-02-03 15:41:00,48.0,38.0,30.21,WNW,285,12.0,21.0,69,-99.99,,,-99.99,,2013-02-03 23:41:00,
2013-02-03 15:52:00,48.0,39.0,30.21,WNW,288,13.0,24.0,71,-99.99,,,-99.99,,2013-02-03 23:52:00,
2013-02-03 16:01:00,47.0,39.0,30.21,WNW,284,14.0,28.0,71,-99.99,,,-99.99,,2013-02-04 00:01:00,
2013-02-03 16:11:00,47.0,39.0,30.21,West,279,12.0,22.0,72,-99.99,,,-99.99,,2013-02-04 00:11:00,
2013-02-03 16:21:00,47.0,39.0,30.21,WNW,286,13.0,21.0,72,-99.99,,,-99.99,,2013-02-04 00:21:00,
2013-02-03 16:31:00,47.0,39.0,30.21,WNW,286,13.0,23.0,72,-99.99,,,-99.99,,2013-02-04 00:31:00,
2013-02-03 16:41:00,47.0,39.0,30.21,WNW,291,15.0,26.0,71,-99.99,,,-99.99,,2013-02-04 00:41:00,
2013-02-03 16:51:00,47.0,39.0,30.21,WNW,289,12.0,24.0,72,-99.99,,,-99.99,,2013-02-04 00:51:00,
2013-02-03 17:01:00,47.0,39.0,30.21,WNW,289,12.0,24.0,72,-99.99,,,-99.99,,2013-02-04 01:01:00,
2013-02-03 17:11:00,46.0,39.0,30.21,WNW,288,11.0,19.0,74,-99.99,,,-99.99,,2013-02-04 01:11:00,
2013-02-03 17:21:00,46.0,38.0,30.21,WNW,289,11.0,19.0,74,-99.99,,,-99.99,,2013-02-04 01:21:00,
2013-02-03 17:31:00,46.0,38.0,30.21,WNW,285,12.0,18.0,73,-99.99,,,-99.99,,2013-02-04 01:31:00,
2013-02-03 17:41:00,46.0,38.0,30.21,WNW,282,13.0,22.0,73,-99.99,,,-99.99,,2013-02-04 01:41:00,
2013-02-03 17:52:00,46.0,38.0,30.21,WNW,288,12.0,24.0,73,-99.99,,,-99.99,,2013-02-04 01:52:00,
2013-02-03 18:01:00,46.0,38.0,30.21,WNW,285,12.0,20.0,73,-99.99,,,-99.99,,2013-02-04 02:01:00,
2013-02-03 18:11:00,46.0,38.0,30.22,West,279,11.0,21.0,74,-99.99,,,-99.99,,2013-02-04 02:11:00,
2013-02-03 18:21:00,46.0,38.0,30.22,West,281,13.0,22.0,75,-99.99,,,-99.99,,2013-02-04 02:21:00,
2013-02-03 18:31:00,46.0,39.0,30.22,West,280,13.0,22.0,75,-99.99,,,-99.99,,2013-02-04 02:31:00,
2013-02-03 18:41:00,46.0,39.0,30.22,West,272,15.0,26.0,75,-99.99,,,-99.99,,2013-02-04 02:41:00,
2013-02-03 18:52:00,46.0,38.0,30.22,West,270,13.0,20.0,74,-99.99,,,-99.99,,2013-02-04 02:52:00,
2013-02-03 19:01:00,46.0,38.0,30.22,West,270,13.0,20.0,74,-99.99,,,-99.99,,2013-02-04 03:01:00,
2013-02-03 19:11:00,46.0,38.0,30.22,West,269,12.0,20.0,74,-99.99,,,-99.99,,2013-02-04 03:11:00,
2013-02-03 19:21:00,46.0,38.0,30.23,West,270,14.0,26.0,73,-99.99,,,-99.99,,2013-02-04 03:21:00,
2013-02-03 19:31:00,46.0,38.0,30.23,West,275,10.0,20.0,73,-99.99,,,-99.99,,2013-02-04 03:31:00,
2013-02-03 19:41:00,46.0,38.0,30.23,West,274,10.0,15.0,74,-99.99,,,-99.99,,2013-02-04 03:41:00,
2013-02-03 19:51:00,46.0,38.0,30.23,West,277,9.0,16.0,74,-99.99,,,-99.99,,2013-02-04 03:51:00,
2013-02-03 20:01:00,46.0,38.0,30.23,West,267,10.0,16.0,73,-99.99,,,-99.99,,2013-02-04 04:01:00,
2013-02-03 20:11:00,46.0,38.0,30.23,West,268,11.0,18.0,73,-99.99,,,-99.99,,2013-02-04 04:11:00,
2013-02-03 20:21:00,46.0,38.0,30.22,West,275,10.0,22.0,72,-99.99,,,-99.99,,2013-02-04 04:21:00,
2013-02-03 20:31:00,46.0,38.0,30.22,West,278,8.0,14.0,72,-99.99,,,-99.99,,2013-02-04 04:31:00,
2013-02-03 20:41:00,46.0,38.0,30.22,West,264,11.0,19.0,72,-99.99,,,-99.99,,2013-02-04 04:41:00,
2013-02-03 20:52:00,46.0,38.0,30.22,West,262,11.0,18.0,73,-99.99,,,-99.99,,2013-02-04 04:52:00,
2013-02-03 21:03:00,46.0,38.0,30.21,West,280,11.0,17.0,72,-99.99,,,-99.99,,2013-02-04 05:03:00,
2013-02-03 21:11:00,46.0,37.0,30.22,West,276,11.0,19.0,72,-99.99,,,-99.99,,2013-02-04 05:11:00,
2013-02-03 21:22:00,46.0,38.0,30.22,West,275,10.0,16.0,72,-99.99,,,-99.99,,2013-02-04 05:22:00,
2013-02-03 21:33:00,46.0,38.0,30.21,West,275,10.0,17.0,73,-99.99,,,-99.99,,2013-02-04 05:33:00,
2013-02-03 21:42:00,46.0,38.0,30.21,West,270,10.0,16.0,73,-99.99,,,-99.99,,2013-02-04 05:42:00,
2013-02-03 21:52:00,45.0,38.0,30.21,West,274,7.0,14.0,74,-99.99,,,-99.99,,2013-02-04 05:52:00,
2013-02-03 22:01:00,45.0,38.0,30.21,West,265,7.0,13.0,74,-99.99,,,-99.99,,2013-02-04 06:01:00,
2013-02-03 22:11:00,45.0,38.0,30.21,West,267,7.0,13.0,74,-99.99,,,-99.99,,2013-02-04 06:11:00,
2013-02-03 22:21:00,45.0,38.0,30.21,West,267,3.0,6.0,74,-99.99,,,-99.99,,2013-02-04 06:21:00,
2013-02-03 22:31:00,45.0,38.0,30.21,West,278,7.0,11.0,74,-99.99,,,-99.99,,2013-02-04 06:31:00,
2013-02-03 22:41:00,45.0,38.0,30.21,West,278,7.0,11.0,74,-99.99,,,-99.99,,2013-02-04 06:41:00,
2013-02-03 22:51:00,45.0,38.0,30.21,West,267,6.0,11.0,75,-99.99,,,-99.99,,2013-02-04 06:51:00,
2013-02-03 23:01:00,45.0,38.0,30.22,WNW,290,3.0,8.0,75,-99.99,,,-99.99,,2013-02-04 07:01:00,
2013-02-03 23:11:00,46.0,38.0,30.21,WSW,251,6.0,13.0,74,-99.99,,,-99.99,,2013-02-04 07:11:00,
2013-02-03 23:21:00,46.0,38.0,30.21,West,275,9.0,19.0,73,-99.99,,,-99.99,,2013-02-04 07:21:00,
2013-02-03 23:31:00,45.0,37.0,30.20,South,171,3.0,6.0,72,-99.99,,,-99.99,,2013-02-04 07:31:00,
2013-02-03 23:41:00,45.0,37.0,30.20,South,171,3.0,6.0,72,-99.99,,,-99.99,,2013-02-04 07:41:00,
2013-02-03 23:51:00,44.0,37.0,30.20,SSW,208,2.0,4.0,76,-99.99,,,-99.99,,2013-02-04 07:51:00,